Regional Weather Roundup
Issued by NWS

Home | Current Version | Previous Version | Text Only | Print | Product List | Glossary Off
Versions: 1 2 3 4 5 6 7 8 9 10 11 12 13 14 15 16 17 18 19 20 21 22 23 24 25 26 27 28 29 30 31 32 33 34 35 36 37 38 39 40 41 42 43 44 45 46 47 48 49 50

243
ASUS45 KPSR 131610
RWRAZ

ARIZONA HOURLY REGIONAL WEATHER ROUNDUP
NATIONAL WEATHER SERVICE PHOENIX AZ
900 AM MST SAT FEB 13 2016

NOTE: FAIR INDICATES FEW OR NO CLOUDS BELOW 12,000 FEET WITH NO
SIGNIFICANT WEATHER AND/OR OBSTRUCTIONS TO VISIBILITY.

AZZ001>003-036-131700-
NORTHWEST ARIZONA

CITY           SKY/WX    TMP DP  RH WIND       PRES   REMARKS
BULLHEAD CITY  SUNNY     50  28  43 S5        30.15R
KINGMAN        SUNNY     50  23  34 CALM      30.20R
$$

AZZ004>008-015-016-018-131700-
NORTH CENTRAL ARIZONA

CITY           SKY/WX    TMP DP  RH WIND       PRES   REMARKS
GRAND CANYON   SUNNY     38  23  55 CALM      30.32R
WILLIAMS       SUNNY     45  21  39 S7        30.36S
PRESCOTT       SUNNY     44  26  49 S3        30.26S
FLAGSTAFF      SUNNY     38  26  62 CALM      30.33R
PAYSON         SUNNY     55  18  22 E6        30.27S
PAGE           SUNNY     41  31  67 NW3       30.28S
$$

AZZ009>014-017-131700-
NORTHEAST ARIZONA

CITY           SKY/WX    TMP DP  RH WIND       PRES   REMARKS
WINSLOW        SUNNY     36  21  54 E6        30.30S WCI  31
SAINT JOHNS    SUNNY     39  19  44 CALM      30.30S
WINDOW ROCK    SUNNY     35   0  22 CALM      30.34S
SHOW LOW       SUNNY     50  16  25 S7        30.32S
$$

AZZ023-131700-
GREATER PHOENIX AREA

CITY           SKY/WX    TMP DP  RH WIND       PRES   REMARKS
PHOENIX        MOSUNNY   62  32  32 SE3       30.07F
BUCKEYE        SUNNY     54  32  43 CALM      30.10S
GLENDALE       SUNNY     48  34  57 CALM      30.10F
LUKE AFB       SUNNY     56  32  40 N5        30.08S
DEER VALLEY    SUNNY     62  28  27 NE6       30.08F
SCOTTSDALE     SUNNY     60  37  42 CALM      30.10S
MESA-FALCON    SUNNY    N/A N/A N/A N17       30.09S
MESA-GATEWAY   SUNNY     55  32  41 E5        30.10S
CHANDLER       SUNNY     55  34  44 CALM      30.10R
$$

AZZ027-028-131700-
SOUTHWEST MARICOPA COUNTY AND PINAL COUNTY

CITY           SKY/WX    TMP DP  RH WIND       PRES   REMARKS
CASA GRANDE    SUNNY     55  28  35 CALM      30.10S
GILA BEND      SUNNY     56  32  39 NE8       30.07R
$$

AZZ503-504-507>509-131700-
SOUTHEAST ARIZONA

CITY           SKY/WX    TMP DP  RH WIND       PRES   REMARKS
TUCSON         SUNNY     58  22  24 SE7       30.15R
DAVIS-MONTHAN  SUNNY     62  20  19 SE9       30.13R
RYAN FIELD     SUNNY     54  28  37 E3        30.14S
NOGALES        SUNNY     55  21  26 CALM      30.19R
SIERRA VISTA   SUNNY     60  13  16 NE1       30.24R
DOUGLAS        MOSUNNY   50  14  23 CALM      30.23R
SAFFORD        SUNNY     57  20  23 E10       30.20S
$$

AZZ020-021-025-026-031-131700-
SOUTHWEST ARIZONA

CITY           SKY/WX    TMP DP  RH WIND       PRES   REMARKS
YUMA           SUNNY     63  27  25 NE6       30.06R
$$

CAZ031-033-041-043-047-048-061-131700-
SOUTHERN CALIFORNIA

CITY           SKY/WX    TMP DP  RH WIND       PRES   REMARKS
DOWNTOWN L.A.  SUNNY     54  49  83 CALM      30.10S
L.A. AIRPORT   MOSUNNY   53  52  96 CALM      30.10F
SAN DIEGO      FOG       54  50  87 CALM      30.13R VSB 1
BURBANK        SUNNY     57  35  43 CALM      30.10S
ONTARIO        MOSUNNY   57  37  47 CALM      30.11S
RIVERSIDE      MOSUNNY   54  34  46 E3        30.12S
PALM SPRINGS   SUNNY     63  27  25 NW6       30.08S
EL CENTRO NAS  MOSUNNY   54  22  28 W5        30.08R
IMPERIAL       SUNNY     54  30  40 CALM      30.05R
BLYTHE         SUNNY     53  26  35 NE3       30.09R
NEEDLES        SUNNY     58  27  30 S3        30.14R
$$

NVZ020-UTZ003-131700-
SOUTHERN NEVADA-UTAH

CITY           SKY/WX    TMP DP  RH WIND       PRES   REMARKS
LAS VEGAS      MOSUNNY   53  25  33 S3        30.16R
SALT LAKE CITY FOG       29  28  96 N5        30.33R VSB 1/8 WCI  24
$$

NMZ009-TXZ055-131700-
NEW MEXICO-WEST TEXAS

CITY           SKY/WX    TMP DP  RH WIND       PRES   REMARKS
ALBUQUERQUE    MOSUNNY   42  22  44 CALM      30.32S
EL PASO        PTSUNNY   49  16  26 N6        30.27S
$$


........................KEY........................
SKY/WX - SKY CONDITION/WEATHER
TMP    - TEMPERATURE IN FAHRENHEIT
DP     - DEW POINT IN FAHRENHEIT
RH     - RELATIVE HUMIDITY IN PERCENT
WIND   - DIRECTION AND SPEED IN MILES PER HOUR (MPH)
VRB    - VARIABLE WIND DIRECTION
PRES   - MEAN SEA LEVEL PRESSURE IN INCHES OF MERCURY
         F - FALLING PRESSURE   R - RISING PRESSURE
         S - STEADY PRESSURE
VSB    - VISIBILITY IN MILES
HX     - HEAT INDEX IN FAHRENHEIT
WCI    - WIND CHILL INDEX IN FAHRENHEIT
TC     - TEMPERATURE IN CELSIUS WHICH IS ALSO KNOWN AS
         TEMPERATURE IN CENTIGRADE
AFB    - AIR FORCE BASE
         LUKE AFB IS LUKE AIR FORCE BASE
         DAVIS-MONTHAN IS DAVIS-MONTHAN AIR FORCE BASE
NAS    - NAVAL AIR STATION
         EL CENTRO NAS IS EL CENTRO NAVAL AIR STATION
N/A    - NOT AVAILABLE





USA.gov is the U.S. government's official web portal to all federal, state and local government web resources and services.